EHI
0 0 0 0 0 0 0 0 0 0 0 0 0 0 0 0 0 0 0 0 0 0 0 0 0 0 0 0 0 0 0 0 0 0 0 0 0 0 0 0 0 0 0 0
0 0 0 0 0 0 0 0 0 0 0 0 0 0 0 0 0 0 0 0 0 0 0 0 0 0 0 0 0 0 0 0 0 0 0 0 0 0 0 0 0 0 0 0
0 0 0 0 0 1 0 0 0 0 0 0 0 0 0 0 0 0 0 0 0 0 0 0 0 0 0 0 0 0 0 0 0 0 0 0 0 0 0 0 0 0 0 0
0 0 0 0 0 0 0 0 0 0 0 0 0 0 0 0 0 0 0 0 0 0 0 0 0 0 0 0 0 0 0 0 0 0 0 0 0 0 0 0 0 0 0 0
0 0 0 0 0 0 0 0 0 0 0 0 0 0 0 0 0 0 0 0 0 0 0 0 0 0 0 0 0 0 0 0 0 0 0 0 0 0 0 0 0 0 0 0
0 0 0 0 0 0 0 0 0 0 0 1 0 0 0 0 0 0 0 0 0 0 0 0 0 0 0 0 0 0 0 0 0 0 0 0 0 0 0 0 0 0 0 0
0 0 0 0 0 0 0 0 0 0 0 1 1 1 0 0 0 0 0 0 0 0 0 0 0 0 0 0 0 0 0 0 0 0 0 0 0 0 0 0 0 0 0 0
0 0 0 0 0 0 0 0 0 0 0 0 1 1 0 0 0 0 0 0 0 0 0 0 0 0 0 0 0 0 0 0 0 0 0 0 0 0 0 0 0 0 0 0
0 0 0 0 0 0 0 0 0 0 0 0 1 1 0 0 0 0 0 0 0 0 0 0 0 0 0 0 0 0 0 0 0 0 0 0 0 0 0 0 0 0 0 0
0 0 0 0 0 0 0 0 0 0 0 0 0 0 0 0 0 0 0 0 0 0 0 0 0 0 0 0 0 0 0 0 0 0 0 0 0 0 0 0 0 0 0 0
0 0 0 0 0 0 0 0 0 0 0 0 0 0 0 0 0 0 0 0 0 0 0 0 0 0 0 0 0 0 0 0 0 0 0 0 0 0 0 0 0 0 0 0
0 0 0 0 0 0 0 0 0 0 0 0 0 0 0 0 0 0 0 0 0 0 0 0 0 0 0 0 0 0 0 0 0 0 0 0 0 0 0 0 0 0 0 0
0 0 0 0 0 0 0 0 0 0 0 0 0 0 0 0 0 0 0 0 0 0 0 0 0 0 0 0 0 0 0 0 0 0 0 0 0 0 0 0 0 0 0 0
0 0 0 0 0 0 0 0 0 0 0 0 0 0 0 0 0 0 0 0 0 0 0 0 0 0 0 0 0 0 0 0 0 0 0 0 0 0 0 0 0 0 0 0
0 0 0 0 0 0 0 0 0 0 0 0 0 0 0 0 0 0 0 0 0 0 0 0 0 0 0 0 0 0 0 0 0 0 0 0 0 0 0 0 0 0 0 0
0 0 0 0 0 0 0 0 0 0 0 0 0 0 0 0 0 0 0 0 0 0 0 0 0 0 0 0 0 0 0 0 0 0 0 0 0 0 0 0 0 0 0 0
0 0 0 0 0 0 0 0 0 0 0 0 0 0 0 0 0 0 0 0 0 0 0 0 0 0 0 0 0 0 0 0 0 0 0 0 0 0 0 0 0 0 0 0
0 0 0 0 0 0 0 0 0 0 0 0 0 0 0 0 0 0 0 0 0 0 0 0 0 0 0 0 0 0 0 0 0 0 0 0 0 0 0 0 0 0 0 0
0 0 0 0 0 0 0 0 0 0 0 0 0 0 0 0 0 0 0 0 0 0 0 0 0 0 0 0 0 0 0 0 0 0 0 0 0 0 0 0 0 0 0 0
0 0 0 0 0 0 0 0 0 0 0 0 0 0 0 0 0 0 0 0 0 0 0 0 0 0 0 0 0 0 0 0 0 0 0 0 0 0 0 0 0 0 0 0
0 0 0 0 0 0 0 0 0 0 0 0 0 0 0 0 0 0 0 0 0 0 0 0 0 0 0 0 0 0 0 0 0 0 0 0 0 0 0 0 0 0 0 0
0 0 0 0 0 0 0 0 0 0 0 0 0 0 0 0 0 0 0 0 0 0 0 0 0 0 0 0 0 0 0 0 0 0 0 0 0 0 0 0 0 0 0 0
0 0 0 0 0 0 0 0 0 0 0 0 0 0 0 0 0 0 0 0 0 0 0 0 0 0 0 0 0 0 0 0 0 0 0 0 0 0 0 0 0 0 0 0
0 0 0 0 0 0 0 0 0 0 0 0 0 0 0 0 0 0 0 0 0 0 0 0 0 0 0 0 0 0 0 0 0 0 0 0 0 0 0 0 0 0 0 0
0 0 0 0 0 0 0 0 0 0 0 0 0 0 0 0 0 0 0 0 0 0 0 0 0 0 0 0 0 0 0 0 0 0 0 0 0 0 0 0 0 0 0 0
0 0 0 0 0 0 0 0 0 0 0 0 0 0 0 0 0 0 0 0 0 0 0 0 0 0 0 0 0 0 0 0 0 0 0 0 0 0 0 0 0 0 0 0
0 0 0 0 0 0 0 0 0 0 0 0 0 0 0 0 0 0 0 0 0 0 0 0 0 0 0 0 0 0 0 0 0 0 0 0 0 0 0 0 0 0 0 0
Wind_Speed
2 3 1 1 3 3 2 4 5 5 6 7 8 9 10 11 11 11 10 9 8 6 5 4 3 3 3 2 2 3 3 4 3 3 4 4 5 5 5 6 7 6 6 6
3 2 3 5 7 4 3 2 4 5 2 2 7 8 9 10 11 11 10 9 8 6 5 4 3 2 2 2 2 2 3 3 3 3 4 4 5 5 6 7 7 7 7 7
2 4 3 4 6 5 4 2 2 4 4 8 9 10 10 10 10 10 9 8 7 5 4 3 3 3 2 2 2 3 3 3 3 3 4 4 5 6 6 6 7 7 7 8
1 4 2 1 1 4 6 5 4 5 8 8 8 6 5 7 9 9 8 7 6 5 4 3 3 3 3 3 3 4 4 4 4 4 5 5 5 6 6 5 6 6 7 7
2 1 0 2 3 1 3 2 2 7 9 9 10 8 4 4 7 8 7 6 5 5 4 3 3 3 4 4 4 4 4 4 4 4 4 5 5 5 4 5 6 5 6 7
1 2 1 3 5 2 4 1 1 7 10 10 8 5 4 5 8 9 7 6 6 5 4 4 3 4 5 4 4 4 3 3 4 4 4 4 4 4 4 4 5 5 7 6
1 1 1 3 5 3 2 3 2 6 8 8 4 4 8 9 8 8 8 7 6 6 4 3 3 4 4 4 3 3 3 4 4 4 4 4 4 4 4 5 5 6 6 6
2 1 2 4 3 2 3 1 4 6 5 6 9 11 11 10 9 9 8 7 6 5 4 3 4 5 5 4 3 4 5 5 5 4 4 4 5 4 4 5 5 5 5 5
3 3 3 1 2 2 4 5 4 5 7 12 11 11 10 9 9 8 7 6 5 5 4 3 3 4 5 3 3 4 5 5 5 5 5 4 5 5 4 4 4 3 4 4
3 1 1 3 4 4 5 6 6 9 10 11 11 10 9 8 7 7 6 6 5 6 5 4 3 4 4 4 4 5 5 4 4 5 5 5 4 3 3 3 3 3 3 3
2 1 3 3 3 5 7 9 10 9 9 10 11 10 9 8 7 7 6 5 5 5 5 4 4 4 4 4 5 5 4 4 4 4 4 5 4 4 3 2 1 3 2 2
3 5 4 2 3 7 9 9 10 10 9 8 9 9 8 7 6 6 6 6 5 5 5 5 4 4 4 4 4 5 4 3 3 3 3 3 4 4 7 5 4 4 5 5
3 4 5 5 5 7 8 8 9 10 10 9 8 8 8 7 6 6 6 7 7 6 6 5 5 5 4 4 5 5 4 3 2 2 2 2 2 3 3 4 7 6 5 5
5 6 5 4 6 7 9 10 10 9 9 9 8 8 8 7 6 7 7 7 6 6 6 5 5 5 4 4 4 4 3 3 2 2 2 2 2 2 2 2 1 2 2 1
3 5 6 6 8 8 9 10 10 9 8 7 7 8 8 8 7 7 6 6 6 6 6 6 5 5 4 4 4 3 2 2 2 2 2 2 2 2 2 2 2 1 1 2
5 7 8 9 9 8 9 10 9 9 8 8 7 8 8 8 7 7 6 7 7 6 6 6 5 5 5 5 4 2 2 3 2 1 1 2 2 3 3 3 2 2 2 2
6 5 6 8 8 8 8 8 9 9 9 9 9 8 9 8 7 6 6 6 6 6 6 6 5 5 5 4 4 2 2 2 2 1 1 2 3 3 3 4 3 3 4 4
5 6 7 9 8 8 7 8 9 9 9 9 9 9 9 8 8 7 6 6 6 5 5 6 5 5 4 4 3 2 2 1 1 2 2 2 3 3 3 4 4 4 3 3
4 5 6 8 8 8 8 8 9 9 9 9 10 9 8 8 8 7 6 6 6 5 5 6 7 5 4 4 4 2 2 2 2 2 2 2 2 2 3 4 4 4 4 3
5 5 6 6 7 7 8 8 8 8 9 9 9 9 8 8 8 7 7 6 6 6 6 6 6 5 5 4 4 2 2 2 2 2 2 2 3 3 3 4 4 4 4 4
5 5 5 5 6 7 8 9 9 9 9 10 10 10 9 8 8 7 6 5 5 6 6 8 5 4 4 4 4 2 2 3 3 3 3 3 3 3 3 3 4 4 5 4
4 4 4 5 6 6 6 7 8 9 9 9 9 9 8 8 8 7 7 6 6 8 6 5 5 6 6 5 3 3 3 3 3 3 3 3 3 4 4 4 4 4 5 5
3 4 4 5 6 5 5 6 7 8 9 9 10 9 9 8 7 7 6 5 5 9 7 6 7 10 10 5 3 3 4 4 3 4 4 4 4 5 5 5 4 4 4 5
3 3 3 3 4 5 5 5 6 6 8 8 9 9 9 7 5 6 6 8 11 11 7 8 12 12 10 4 4 4 4 4 4 4 4 4 4 5 5 5 5 5 5 6
3 3 3 4 4 4 5 5 5 5 6 5 7 8 8 7 7 7 6 8 11 11 7 9 13 13 8 5 5 5 5 5 5 5 4 4 5 5 5 5 5 5 5 5
3 3 3 4 4 4 4 4 4 4 5 4 5 6 6 6 7 7 6 8 10 11 9 7 8 9 7 6 6 7 6 6 6 6 6 5 6 6 6 6 7 6 6 6
2 2 2 2 2 3 3 4 4 5 5 5 5 6 6 6 7 7 8 7 7 8 8 7 7 7 7 7 7 7 6 6 6 6 6 6 5 6 6 7 6 6 5 6
Wind_Direction
236 265 326 350 341 17 79 167 174 195 183 198 179 161 151 143 137 133 134 131 128 125 121 113 104 93 82 69 61 62 61 58 51 52 57 56 53 48 48 53 53 48 47 44
345 338 35 32 13 24 44 83 131 132 146 163 130 126 137 143 143 142 140 136 132 128 121 116 112 107 98 86 79 75 73 66 57 61 64 60 57 55 56 54 52 52 49 50
329 329 43 30 1 24 50 23 154 168 171 138 131 144 152 150 146 145 141 136 134 130 124 120 119 118 115 102 88 80 75 70 64 69 73 68 70 65 60 58 58 55 51 54
8 28 77 251 338 68 77 37 55 100 126 136 132 126 128 140 139 138 138 134 131 127 122 118 113 105 100 93 89 85 76 69 65 74 78 75 72 68 61 59 59 57 55 55
98 99 257 327 347 27 92 36 90 118 122 116 110 90 80 115 129 134 133 133 130 128 126 121 114 108 102 89 84 83 77 72 70 82 87 83 79 72 66 67 61 57 58 59
104 113 203 273 311 329 104 77 204 136 140 145 136 137 168 143 125 119 118 121 123 120 115 118 120 110 105 97 90 86 84 81 76 82 89 89 87 78 71 75 71 69 61 54
133 145 267 297 314 26 115 230 182 142 150 155 162 155 139 131 122 123 124 125 122 119 118 128 125 113 106 102 99 98 90 83 78 79 84 91 84 74 79 77 70 66 61 47
115 119 260 316 25 93 196 162 122 126 134 121 113 114 122 126 126 128 127 126 124 122 121 118 117 115 111 107 99 93 89 83 76 65 72 84 85 75 71 77 74 65 63 50
158 193 242 329 106 131 129 117 120 121 126 126 125 130 132 131 132 132 133 130 127 129 124 112 112 119 122 119 105 96 89 83 75 69 60 63 73 77 69 68 76 69 70 66
84 74 77 70 84 83 97 115 120 128 132 132 133 136 134 136 137 136 135 134 133 130 126 122 119 119 126 123 113 104 98 90 80 78 65 54 54 60 72 73 77 77 83 81
86 113 70 48 90 106 105 109 115 123 128 136 136 137 139 141 142 140 137 135 136 137 134 135 134 129 130 126 117 109 102 96 89 86 86 73 61 51 63 57 134 136 136 131
200 201 157 176 150 125 120 125 129 126 122 129 136 138 137 139 140 140 140 137 135 135 137 144 145 137 135 134 130 122 115 110 105 105 98 95 91 62 40 49 57 92 123 126
168 144 132 131 121 118 121 126 130 130 134 133 132 133 134 135 138 138 137 142 146 145 143 145 146 146 149 145 137 133 135 138 129 127 126 122 115 111 84 32 43 59 85 106
116 106 105 121 125 122 120 121 121 120 126 130 131 131 130 129 135 139 145 150 148 142 141 143 142 149 156 147 141 140 143 154 156 160 159 162 162 154 140 131 90 11 15 66
111 116 132 126 117 119 122 123 124 126 128 128 133 136 137 138 143 145 146 142 139 139 143 145 147 159 163 149 145 150 154 160 158 169 174 178 180 170 165 161 159 176 321 318
109 110 120 126 132 134 134 136 138 143 142 139 141 145 145 144 144 143 143 142 142 151 155 153 157 166 161 152 149 151 174 197 185 173 180 179 179 178 181 185 189 199 220 237
122 133 140 145 148 150 153 154 153 152 151 150 153 148 142 139 139 144 149 152 151 155 159 160 167 168 163 160 158 166 187 234 228 196 209 203 190 186 185 188 197 214 231 233
158 165 165 162 160 155 156 156 155 153 156 158 152 146 147 150 155 161 160 151 143 147 166 171 171 171 175 179 179 183 192 210 213 209 211 206 197 188 185 195 205 215 234 248
132 141 148 155 156 152 153 156 159 159 157 153 153 156 160 162 162 161 155 151 154 166 189 187 179 176 186 205 196 196 205 220 231 228 218 214 213 207 199 203 212 218 221 223
121 128 133 142 147 148 153 158 157 157 159 157 155 157 162 168 167 163 159 169 185 189 186 182 180 185 197 208 200 197 210 217 223 229 224 217 216 220 218 215 215 220 220 220
120 127 131 136 147 153 155 157 157 161 163 162 162 169 172 174 172 167 166 184 211 193 182 184 185 194 201 203 196 199 212 219 223 224 222 222 226 230 233 231 226 221 218 218
126 126 131 134 140 150 158 158 160 163 162 166 170 171 169 173 177 179 187 193 198 189 182 188 196 203 203 200 199 208 222 230 227 224 225 225 224 229 234 231 228 227 221 218
131 135 138 146 151 158 159 161 163 165 169 173 175 178 180 183 180 181 199 208 191 188 185 195 204 206 205 201 209 222 229 237 238 234 230 228 227 226 230 236 233 230 225 221
138 142 152 151 143 145 163 181 177 175 176 179 184 184 180 180 190 198 193 191 191 190 194 201 203 206 206 208 215 224 232 238 240 239 236 234 234 232 231 232 235 234 229 225
152 149 145 142 153 176 187 183 174 176 176 184 190 190 187 185 187 197 191 189 192 191 199 205 205 207 205 212 220 227 233 239 240 237 236 236 237 237 236 234 231 232 229 227
165 174 180 182 183 185 182 173 175 181 178 186 197 199 196 194 191 188 189 194 194 195 199 202 205 207 210 216 223 228 232 240 245 241 239 237 235 235 237 236 234 229 227 226
175 176 175 177 190 184 175 175 184 196 193 191 200 202 198 195 192 194 194 195 194 198 202 202 201 204 210 219 226 228 231 235 238 237 237 239 238 235 233 232 229 227 225 225